This is the latest recevied weather packets stored in our database for station/object DH8TOM-3. If no packets are shown the sender has not sent any weather packets the latest 1 day(s).
| Time | Temp. | Humidity | Pressure | Rain* | Wind** | Luminosity | Snow |
|---|---|---|---|---|---|---|---|
| 1778098130 | 15.56° C | 78% | 1005.6 hPa | 0 mm | - | - | - |
| 1778097227 | 16.11° C | 77% | 1005.6 hPa | 0 mm | - | - | - |
| 1778096626 | 16.11° C | 76% | 1005.4 hPa | 0 mm | - | - | - |
| 1778096324 | 16.11° C | 76% | 1005.4 hPa | 0 mm | - | - | - |
| 1778096023 | 16.11° C | 76% | 1005.3 hPa | 0 mm | - | - | - |
| 1778095723 | 16.11° C | 76% | 1005.3 hPa | 0 mm | - | - | - |
| 1778094819 | 16.67° C | 76% | 1004.9 hPa | 0 mm | - | - | - |
| 1778094217 | 16.67° C | 76% | 1004.9 hPa | 0 mm | - | - | - |
| 1778093013 | 16.67° C | 74% | 1005 hPa | 0 mm | - | - | - |
| 1778092110 | 17.22° C | 74% | 1004.8 hPa | 0 mm | - | - | - |
| 1778090906 | 17.78° C | 74% | 1004.4 hPa | 0 mm | - | - | - |
| 1778090606 | 17.78° C | 72% | 1004.2 hPa | 0 mm | - | - | - |
| 1778090003 | 17.78° C | 70% | 1004.2 hPa | 0 mm | - | - | - |
| 1778089100 | 18.33° C | 70% | 1004.1 hPa | 0 mm | - | - | - |
| 1778087897 | 18.33° C | 69% | 1003.9 hPa | 0 mm | - | - | - |
| 1778086993 | 18.89° C | 69% | 1003.8 hPa | 0 mm | - | - | - |
| 1778085789 | 19.44° C | 68% | 1003.6 hPa | 0 mm | - | - | - |
| 1778084648 | 20° C | 66% | 1003.6 hPa | 0 mm | - | - | - |
| 1778084344 | 20° C | 66% | 1003.6 hPa | 0 mm | - | - | - |
| 1778082779 | 20.56° C | 65% | 1003.5 hPa | 0 mm | - | - | - |
| 1778081876 | 20.56° C | 65% | 1003.6 hPa | 0 mm | - | - | - |
| 1778081575 | 20.56° C | 66% | 1003.7 hPa | 0 mm | - | - | - |
| 1778080672 | 20° C | 65% | 1003.6 hPa | 0 mm | - | - | - |
| 1778080371 | 20.56° C | 65% | 1003.7 hPa | 0 mm | - | - | - |
| 1778079468 | 20.56° C | 65% | 1003.7 hPa | 0 mm | - | - | - |
* Rain latest hour (hover to see other rain measurements)
** Current wind speed in m/s (hover to see current wind gust speed)